Location: Chippewa Lake
(41.0698°N, 81.9010°W)
Time: 20:55:44
(UTC+00:00)

Spot 2 Rocket - Pass Details

Date: 26 September 2021
Orbit: 757 x 772 km, 98.5° (Epoch: 15 October)

Event Time Altitude Azimuth Distance (km) Brightness Sun altitude
Exits shadow 02:57:42 16° 348° (NNW) 1,919 6.0 -39.0°
Drops below altitude 10° 02:58:39 10° 348° (NNW) 2,295 6.5 -39.2°
Sets 03:00:57 0° 348° (NNW) 3,226 7.4 -39.5°
